{"data":{"norad_id":61615,"intl_designator":"2024-189B","name":"TIANPING 3B-01","alt_names":[],"object_type":"PAYLOAD","status":"ACTIVE","operator":null,"country":"PRC","launch_date":"2024-10-22","launch_site_code":"TAISC","launch_vehicle":null,"mission":null,"orbit_class":"UNKNOWN","rcs_meters":null,"size_class":null,"mass_kg":null,"dimensions":null,"purposes":[],"wikipedia_slug":null,"has_3d_model":false,"image_url":null,"decayed_at":null,"tle_current":{"epoch":"2026-05-25T04:20:07.429056Z","epoch_age_seconds":49586,"freshness":"FRESH","line1":"1 61615U 24189B   26145.18064154  .00002290  00000+0  18387-3 0  9992","line2":"2 61615  97.5204 166.0484 0004090  72.5776 287.5896 15.01014946 86992","mean_motion":15.01014946,"eccentricity":0.000409,"inclination_deg":97.5204,"raan_deg":166.0484,"arg_perigee_deg":72.5776,"mean_anomaly_deg":287.5896,"bstar":0.00018387,"rev_number":8699,"period_min":95.935087377871,"perigee_km":560.92605798977,"apogee_km":566.60453406792,"semimajor_km":6941.9022960288,"source":"CELESTRAK","updated_at":"2026-05-25T13:38:02.453296Z"}}}